User: anonymous   Login
Location: Le Domaine
(47.0333°N, 76.5361°W)
Time: 19:34:20
(UTC-05:00)
Language:

Vanguard 2 Rocket - Orbit

View from above orbital plane
View from above orbital plane
View from above satellite
View from above satellite

Ground track
Ground track

The orbit data is extracted from the following two-line orbital elements,

1    12U 59001B   19324.23333674  .00000038  00000-0  28948-4 0  9994
2    12  32.9012   6.4500 1666043  50.7277 322.9682 11.44315152498472
Epoch (UTC): 20 November 2019 05:36:00
Eccentricity: 0.1666043
inclination: 32.9012°
perigee height: 554 km
apogee height: 3326 km
right ascension of ascending node: 6.4500°
argument of perigee: 50.7277°
revolutions per day: 11.44315152
mean anomaly at epoch: 322.9682°
orbit number at epoch: 49847

The dashed part of the orbit path shows where the satellite is in the earth's shadow,  

DLR